Location: Sungai Juaw
(2.6833°N, 113.5333°E)
Time: 22:42:29
(UTC+00:00)

USA 59 Rocket - Pass Details

Date: 04 August 2024
Orbit: 380 x 1730 km, 63.3° (Epoch: 19 September)

Event Time Altitude Azimuth Distance (km) Brightness Sun altitude
Rises 12:08:32 0° 220° (SW) 3,769 4.3 -22.1°
Reaches altitude 10° 12:11:52 10° 230° (SW) 2,557 3.6 -22.9°
Maximum altitude 12:16:43 28° 288° (WNW) 1,303 2.4 -24.1°
Drops below altitude 10° 12:20:24 10° 348° (NNW) 1,891 2.9 -24.9°
Sets 12:22:32 0° 1° (N) 2,633 3.5 -25.4°
